Weather Roundup
Issued by NWS Springfield, MO

Home | Current Version | Previous Version | Text Only | Print | Product List | Glossary On
Versions: 1 2 3 4 5 6 7 8 9 10 11 12 13 14 15 16 17 18 19 20 21 22 23 24 25 26 27 28 29 30 31 32 33 34 35 36 37 38 39 40 41 42 43 44 45 46 47 48 49 50
000
NZUS99 KSGF 041810
HRRSGF

HOURLY WEATHER
NATIONAL WEATHER SERVICE SPRINGFIELD MO
100 PM CDT TUE AUG 04 2015

......SGF CWA......

CITY           SKY/WX    TMP DP  RH WIND       PRES   REMARKS
SPRINGFIELD    CLOUDY    87  67  51 W9        30.01R HX  90
6HR MIN TEMP:  73; 6HR MAX TEMP:  88;

JOPLIN         CLOUDY    85  68  56 SW9       30.01S
6HR MIN TEMP:  74; 6HR MAX TEMP:  85;

WEST PLAINS    CLOUDY    89  67  47 SW10      30.04S HX  92
6HR MIN TEMP:  70; 6HR MAX TEMP:  90;

ROLLA          PTSUNNY   89  69  51 SW9       30.00S HX  93
6HR MIN TEMP:  69; 6HR MAX TEMP:  90;

OSAGE BEACH    CLOUDY    86  68  54 CALM      30.01R
BRANSON        CLOUDY    90  66  45 S7        30.03F HX  92

......SURROUNDING SGF CWA......

CITY           SKY/WX    TMP DP  RH WIND       PRES   REMARKS
CHANUTE        CLOUDY    81  69  67 SW10      30.00R
PARSONS        CLOUDY    83  70  64 SW10      30.01R
COFFEYVILLE    LGT RAIN  81  70  69 SW14      30.00R
EMPORIA        CLOUDY    83  69  62 S8        29.97S
GROVE OK       CLOUDY    84  70  61 W3        30.02S
ROGERS AR      CLOUDY    84  71  65 W9        30.04S
SILOAM SPRINGS CLOUDY    84  64  51 SW8       30.02F
HARRISON AR    CLOUDY    88  69  53 S7        30.04S HX  92
NEAR YELLVILLE PTSUNNY   90  68  48 S5        29.99S HX  93

......KANSAS AND MISSOURI......

CITY           SKY/WX    TMP DP  RH WIND       PRES   REMARKS
KANSAS CTY INT CLOUDY    82  72  71 E14       30.00F
DOWNTOWN KC    CLOUDY    85  73  67 E14       29.98F HX  91
COLUMBIA       MOSUNNY   87  70  56 W9        30.01S HX  92
SEDALIA        MOSUNNY   89  68  49 N9        30.01S HX  93
ST JOSEPH      PTSUNNY   80  69  69 E9        30.00F
ST LOUIS       PTSUNNY   90  67  46 CALM      29.99S HX  93
SPIRIT OF STL  SUNNY     88  71  57 VRB6      29.97F HX  94
KIRKSVILLE     CLOUDY    69  67  93 E7        30.04F
WICHITA        CLOUDY    78  69  73 SE13      29.98F
TOPEKA         CLOUDY    86  73  65 E12       29.96F HX  93
OLATHE         CLOUDY    86  68  54 SE7       29.99F

......TENNESSEE......

CITY           SKY/WX    TMP DP  RH WIND       PRES   REMARKS
MEMPHIS        MOSUNNY   97  68  38 VRB6      30.00F HX 102
NASHVILLE      PTSUNNY   94  64  37 SW8       30.01F HX  95

......ARKANSAS.......

CITY           SKY/WX    TMP DP  RH WIND       PRES   REMARKS
FAYETTEVILLE   CLOUDY    85  70  60 VRB6      30.03S
FT SMITH       CLOUDY    82  63  52 SE9G23    29.98S
LITTLE ROCK    PTSUNNY   95  66  38 S9        29.99F HX  98

......OKLAHOMA.......

CITY           SKY/WX    TMP DP  RH WIND       PRES   REMARKS
TULSA          CLOUDY    81  69  67 SW6       29.97F
PONCA CITY     LGT RAIN  73  71  93 N5        29.99F FOG
MCALESTER      LGT RAIN  82  72  71 CALM      29.99F
OKLAHOMA CITY  LGT RAIN  76  72  87 S7        29.97F

......IOWA............

CITY           SKY/WX    TMP DP  RH WIND       PRES   REMARKS
DES MOINES     CLOUDY    75  58  55 CALM      30.03F
QUAD CITIES    CLOUDY    81  58  45 W14       30.01S

......ILLINOIS........

CITY           SKY/WX    TMP DP  RH WIND       PRES   REMARKS
QUINCY         CLOUDY    73  61  65 NE7       30.06R
CHICAGO        PTSUNNY   79  52  38 W12       29.97S




USA.gov is the U.S. government's official web portal to all federal, state and local government web resources and services.